RSL76 LFPO-LFBZ

Flight info

Callsign RSL76
Flight time 1h 6m
Altitude 35000
Route AGOPA DCT ARKIP DCT ARMAL DCT ARTAX DCT BEBIX DCT LMG DCT UVELI DCT OSMOB DCT VAVIX DCT MAGEC
Aircraft B738/M-SDE2E3FGHIRWXY/LB1

Departure

Time 2026-05-05 22:12
Airport Paris-Orly Airport (LFPO)

Arrival

Time 2026-05-05 23:19
Airport Biarritz Pays Basque airport (LFBZ)
Time Latitude Longitude Altitude Speed Heading
2026-05-05 21:48 48.72728 2.35707 293 ft 0 kts 148°
2026-05-05 22:05 48.72732 2.35704 283 ft 4 kts 149°
2026-05-05 22:05 48.72756 2.35688 283 ft 4 kts 174°
2026-05-05 22:05 48.72779 2.35694 283 ft 4 kts 231°
2026-05-05 22:06 48.72784 2.35705 283 ft 0 kts 253°
2026-05-05 22:08 48.72777 2.35673 289 ft 8 kts 248°
2026-05-05 22:09 48.72709 2.35623 286 ft 13 kts 173°
2026-05-05 22:09 48.72619 2.35657 288 ft 13 kts 164°
2026-05-05 22:09 48.72534 2.35694 285 ft 13 kts 164°
2026-05-05 22:09 48.72456 2.35659 284 ft 12 kts 230°
2026-05-05 22:10 48.72379 2.35632 285 ft 12 kts 170°
2026-05-05 22:10 48.72299 2.35625 284 ft 12 kts 194°
2026-05-05 22:10 48.72219 2.35609 284 ft 11 kts 174°
2026-05-05 22:10 48.72142 2.35632 285 ft 11 kts 164°
2026-05-05 22:11 48.72073 2.35679 284 ft 11 kts 142°
2026-05-05 22:11 48.72024 2.35762 285 ft 11 kts 121°
2026-05-05 22:11 48.71988 2.35858 284 ft 10 kts 119°
2026-05-05 22:11 48.71966 2.35959 285 ft 14 kts 87°
2026-05-05 22:12 48.72060 2.36502 288 ft 92 kts 74°
2026-05-05 22:12 48.72302 2.37781 295 ft 157 kts 71°
2026-05-05 22:12 48.72660 2.39547 673 ft 190 kts 71°
2026-05-05 22:12 48.72966 2.41655 1101 ft 217 kts 92°
2026-05-05 22:13 48.72466 2.43816 1921 ft 223 kts 127°
2026-05-05 22:13 48.71252 2.45404 2545 ft 241 kts 145°
2026-05-05 22:13 48.69817 2.46743 3302 ft 249 kts 147°
2026-05-05 22:13 48.68321 2.48097 4162 ft 252 kts 148°
2026-05-05 22:14 48.66809 2.49465 5042 ft 255 kts 148°
2026-05-05 22:14 48.65280 2.50852 5880 ft 258 kts 148°
2026-05-05 22:14 48.63729 2.52265 6703 ft 261 kts 149°
2026-05-05 22:14 48.62014 2.53145 7463 ft 266 kts 180°
2026-05-05 22:15 48.60258 2.52385 8312 ft 267 kts 214°
2026-05-05 22:15 48.58904 2.50449 9118 ft 270 kts 225°
2026-05-05 22:15 48.57563 2.48431 9900 ft 274 kts 223°
2026-05-05 22:15 48.56142 2.46442 10406 ft 287 kts 221°
2026-05-05 22:16 48.54581 2.44353 10592 ft 313 kts 220°
2026-05-05 22:16 48.52901 2.42146 10769 ft 336 kts 221°
2026-05-05 22:16 48.51194 2.39593 11117 ft 352 kts 228°
2026-05-05 22:16 48.49603 2.36754 11751 ft 358 kts 230°
2026-05-05 22:17 48.48030 2.33823 12500 ft 361 kts 231°
2026-05-05 22:17 48.46444 2.30867 13226 ft 364 kts 230°
2026-05-05 22:17 48.44835 2.27900 13906 ft 369 kts 230°
2026-05-05 22:17 48.43191 2.24902 14547 ft 372 kts 230°
2026-05-05 22:18 48.41534 2.21907 15205 ft 374 kts 230°
2026-05-05 22:18 48.39854 2.18884 15868 ft 377 kts 229°
2026-05-05 22:18 48.38158 2.15841 16507 ft 380 kts 229°
2026-05-05 22:18 48.36451 2.12782 17088 ft 385 kts 229°
2026-05-05 22:19 48.34715 2.09674 17679 ft 389 kts 229°
2026-05-05 22:19 48.32969 2.06555 18300 ft 392 kts 229°
2026-05-05 22:19 48.31154 2.03474 18839 ft 394 kts 221°
2026-05-05 22:19 48.28849 2.01319 19403 ft 393 kts 200°
2026-05-05 22:20 48.26201 2.00374 19994 ft 393 kts 183°
2026-05-05 22:20 48.23459 2.00374 20568 ft 394 kts 178°
2026-05-05 22:20 48.20713 2.00515 21080 ft 397 kts 178°
2026-05-05 22:20 48.17973 2.00663 21657 ft 397 kts 178°
2026-05-05 22:21 48.15674 2.00768 22122 ft 399 kts 179°
2026-05-05 22:21 48.12889 2.00867 22610 ft 401 kts 179°
2026-05-05 22:21 48.10086 2.00952 23088 ft 404 kts 179°
2026-05-05 22:21 48.07260 2.01041 23570 ft 406 kts 179°
2026-05-05 22:22 48.04429 2.01182 24002 ft 408 kts 178°
2026-05-05 22:22 48.01592 2.01352 24442 ft 408 kts 178°
2026-05-05 22:22 47.98742 2.01531 24866 ft 409 kts 178°
2026-05-05 22:22 47.95896 2.01708 25324 ft 409 kts 178°
2026-05-05 22:23 47.93051 2.01880 25724 ft 411 kts 178°
2026-05-05 22:23 47.90219 2.02048 26089 ft 413 kts 179°
2026-05-05 22:23 47.87341 2.02216 26458 ft 414 kts 179°
2026-05-05 22:23 47.84448 2.02384 26833 ft 416 kts 179°
2026-05-05 22:24 47.81554 2.02550 27213 ft 417 kts 179°
2026-05-05 22:24 47.78651 2.02718 27544 ft 418 kts 179°
2026-05-05 22:24 47.75743 2.02885 27901 ft 419 kts 178°
2026-05-05 22:24 47.72824 2.03053 28241 ft 421 kts 178°
2026-05-05 22:25 47.69894 2.03221 28559 ft 422 kts 178°
2026-05-05 22:25 47.66945 2.03391 28870 ft 424 kts 178°
2026-05-05 22:25 47.64000 2.03560 29165 ft 425 kts 178°
2026-05-05 22:25 47.61025 2.03731 29508 ft 426 kts 178°
2026-05-05 22:26 47.58063 2.03904 29969 ft 424 kts 178°
2026-05-05 22:26 47.56116 2.04018 30274 ft 421 kts 178°
2026-05-05 22:26 47.52273 2.04243 30920 ft 415 kts 178°
2026-05-05 22:26 47.49392 2.04412 31315 ft 412 kts 178°
2026-05-05 22:27 47.46527 2.04579 31652 ft 411 kts 179°
2026-05-05 22:27 47.43677 2.04744 31997 ft 410 kts 179°
2026-05-05 22:27 47.40832 2.04910 32392 ft 407 kts 179°
2026-05-05 22:27 47.38958 2.05019 32659 ft 405 kts 179°
2026-05-05 22:28 47.36141 2.05182 33036 ft 403 kts 179°
2026-05-05 22:28 47.33347 2.05130 33384 ft 400 kts 186°
2026-05-05 22:28 47.30602 2.04502 33727 ft 398 kts 190°
2026-05-05 22:28 47.27881 2.03779 34045 ft 397 kts 190°
2026-05-05 22:29 47.25158 2.03063 34185 ft 399 kts 190°
2026-05-05 22:29 47.22411 2.02350 34287 ft 402 kts 190°
2026-05-05 22:29 47.19652 2.01643 34474 ft 403 kts 190°
2026-05-05 22:29 47.16888 2.00939 34651 ft 403 kts 190°
2026-05-05 22:30 47.14115 2.00236 34797 ft 405 kts 190°
2026-05-05 22:30 47.11331 1.99533 34952 ft 407 kts 190°
2026-05-05 22:30 47.08539 1.98829 35119 ft 407 kts 190°
2026-05-05 22:30 47.05738 1.98124 35263 ft 409 kts 190°
2026-05-05 22:31 47.02921 1.97415 35400 ft 410 kts 190°
2026-05-05 22:31 47.00139 1.96716 34976 ft 411 kts 190°
2026-05-05 22:31 46.97319 1.96008 35802 ft 408 kts 190°
2026-05-05 22:31 46.94525 1.95308 36064 ft 408 kts 190°
2026-05-05 22:32 46.91713 1.94604 36108 ft 412 kts 190°
2026-05-05 22:32 46.86027 1.93181 36256 ft 417 kts 190°
2026-05-05 22:32 46.83161 1.92465 36412 ft 418 kts 190°
2026-05-05 22:33 46.80285 1.91748 36567 ft 419 kts 190°
2026-05-05 22:33 46.77407 1.91031 36684 ft 420 kts 190°
2026-05-05 22:33 46.74520 1.90312 36815 ft 421 kts 190°
2026-05-05 22:33 46.71626 1.89593 36951 ft 422 kts 191°
2026-05-05 22:34 46.68716 1.88870 37050 ft 424 kts 191°
2026-05-05 22:34 46.65808 1.88148 37164 ft 425 kts 191°
2026-05-05 22:34 46.62889 1.87425 37322 ft 426 kts 191°
2026-05-05 22:34 46.59958 1.86699 37443 ft 427 kts 191°
2026-05-05 22:35 46.57026 1.85974 37558 ft 428 kts 191°
2026-05-05 22:35 46.54089 1.85249 37698 ft 428 kts 191°
2026-05-05 22:35 46.51152 1.84524 37852 ft 428 kts 191°
2026-05-05 22:36 46.45292 1.83080 37908 ft 432 kts 191°
2026-05-05 22:36 46.39361 1.81622 37919 ft 431 kts 191°
2026-05-05 22:37 46.33446 1.80171 37919 ft 431 kts 191°
2026-05-05 22:37 46.27621 1.78284 37907 ft 428 kts 202°
2026-05-05 22:38 46.22423 1.74192 37919 ft 426 kts 218°
2026-05-05 22:38 46.17933 1.68622 37920 ft 425 kts 221°
2026-05-05 22:39 46.13485 1.63000 37926 ft 425 kts 220°
2026-05-05 22:39 46.09020 1.57433 37935 ft 424 kts 220°
2026-05-05 22:40 46.04574 1.51932 37933 ft 424 kts 220°
2026-05-05 22:40 46.00100 1.46407 37931 ft 424 kts 220°
2026-05-05 22:41 45.95765 1.40667 37924 ft 424 kts 228°
2026-05-05 22:41 45.92535 1.33589 37941 ft 425 kts 241°
2026-05-05 22:42 45.89900 1.25980 37946 ft 425 kts 241°
2026-05-05 22:42 45.87240 1.18405 37938 ft 425 kts 241°
2026-05-05 22:43 45.84548 1.10846 37942 ft 425 kts 240°
2026-05-05 22:43 45.81614 1.03512 37939 ft 423 kts 231°
2026-05-05 22:44 45.77536 0.97566 37951 ft 421 kts 219°
2026-05-05 22:44 45.73007 0.92219 37942 ft 422 kts 219°
2026-05-05 22:45 45.68463 0.86860 37942 ft 424 kts 219°
2026-05-05 22:45 45.63919 0.81467 37952 ft 425 kts 219°
2026-05-05 22:46 45.59361 0.76046 37962 ft 427 kts 219°
2026-05-05 22:46 45.54792 0.70619 37954 ft 428 kts 219°
2026-05-05 22:47 45.50238 0.65223 37951 ft 428 kts 219°
2026-05-05 22:47 45.45652 0.59801 37957 ft 428 kts 219°
2026-05-05 22:48 45.41072 0.54398 37959 ft 427 kts 219°
2026-05-05 22:48 45.36498 0.49013 37958 ft 426 kts 219°
2026-05-05 22:49 45.31932 0.43650 37961 ft 425 kts 219°
2026-05-05 22:49 45.27384 0.38319 37488 ft 431 kts 218°
2026-05-05 22:49 45.25050 0.35589 36924 ft 429 kts 218°
2026-05-05 22:50 45.22783 0.32938 36410 ft 427 kts 218°
2026-05-05 22:50 45.20490 0.30261 35814 ft 426 kts 218°
2026-05-05 22:50 45.18198 0.27587 35185 ft 427 kts 218°
2026-05-05 22:50 45.15895 0.24903 34557 ft 428 kts 218°
2026-05-05 22:51 45.13598 0.22230 33940 ft 428 kts 218°
2026-05-05 22:51 45.11302 0.19559 33436 ft 424 kts 218°
2026-05-05 22:51 45.09034 0.16923 32929 ft 420 kts 217°
2026-05-05 22:51 45.06788 0.14316 32474 ft 415 kts 217°
2026-05-05 22:52 45.04567 0.11741 32021 ft 411 kts 217°
2026-05-05 22:52 45.02394 0.09226 31628 ft 405 kts 217°
2026-05-05 22:52 45.00227 0.06720 31196 ft 401 kts 217°
2026-05-05 22:52 44.98070 0.04230 30755 ft 397 kts 217°
2026-05-05 22:53 44.95940 0.01771 30342 ft 394 kts 217°
2026-05-05 22:53 44.93829 -0.00664 29925 ft 390 kts 217°
2026-05-05 22:53 44.91734 -0.03077 29430 ft 387 kts 217°
2026-05-05 22:53 44.89663 -0.05461 28991 ft 382 kts 217°
2026-05-05 22:54 44.87609 -0.07823 28563 ft 378 kts 217°
2026-05-05 22:54 44.85583 -0.10151 28129 ft 374 kts 218°
2026-05-05 22:54 44.83574 -0.12458 27722 ft 370 kts 218°
2026-05-05 22:54 44.81588 -0.14735 27293 ft 367 kts 218°
2026-05-05 22:55 44.79615 -0.16997 26876 ft 364 kts 218°
2026-05-05 22:55 44.77660 -0.19234 26458 ft 361 kts 218°
2026-05-05 22:55 44.75725 -0.21449 26062 ft 358 kts 218°
2026-05-05 22:55 44.73795 -0.23655 25657 ft 355 kts 218°
2026-05-05 22:56 44.71882 -0.25840 25268 ft 353 kts 218°
2026-05-05 22:56 44.70007 -0.27980 24872 ft 351 kts 218°
2026-05-05 22:56 44.68117 -0.30135 24484 ft 349 kts 218°
2026-05-05 22:56 44.66235 -0.32277 24098 ft 347 kts 218°
2026-05-05 22:57 44.64347 -0.34381 23642 ft 347 kts 216°
2026-05-05 22:57 44.62365 -0.36372 22989 ft 351 kts 214°
2026-05-05 22:57 44.60356 -0.38294 22529 ft 348 kts 213°
2026-05-05 22:57 44.58349 -0.40194 22102 ft 346 kts 213°
2026-05-05 22:58 44.56367 -0.42074 21720 ft 342 kts 213°
2026-05-05 22:58 44.54403 -0.43945 21323 ft 340 kts 214°
2026-05-05 22:58 44.52456 -0.45807 20944 ft 337 kts 214°
2026-05-05 22:58 44.50554 -0.47629 20563 ft 334 kts 214°
2026-05-05 22:59 44.48641 -0.49464 20191 ft 332 kts 214°
2026-05-05 22:59 44.46741 -0.51288 19828 ft 330 kts 214°
2026-05-05 22:59 44.44836 -0.53115 19458 ft 330 kts 214°
2026-05-05 22:59 44.42965 -0.54909 19103 ft 330 kts 214°
2026-05-05 23:00 44.39135 -0.58578 18334 ft 336 kts 214°
2026-05-05 23:00 44.37197 -0.60431 17913 ft 336 kts 214°
2026-05-05 23:00 44.35277 -0.62265 17497 ft 333 kts 214°
2026-05-05 23:01 44.33370 -0.64087 17112 ft 330 kts 214°
2026-05-05 23:01 44.31480 -0.65891 16726 ft 328 kts 215°
2026-05-05 23:01 44.29605 -0.67678 16354 ft 325 kts 215°
2026-05-05 23:01 44.27743 -0.69450 15974 ft 323 kts 215°
2026-05-05 23:02 44.25876 -0.71232 15420 ft 326 kts 215°
2026-05-05 23:02 44.24013 -0.73013 15033 ft 324 kts 215°
2026-05-05 23:02 44.22153 -0.74791 14642 ft 323 kts 215°
2026-05-05 23:02 44.20310 -0.76551 14272 ft 321 kts 216°
2026-05-05 23:03 44.18467 -0.78309 13897 ft 320 kts 216°
2026-05-05 23:03 44.16633 -0.80059 13491 ft 318 kts 216°
2026-05-05 23:03 44.14813 -0.81793 13095 ft 316 kts 216°
2026-05-05 23:03 44.12998 -0.83521 12717 ft 314 kts 216°
2026-05-05 23:04 44.11219 -0.85213 12355 ft 312 kts 216°
2026-05-05 23:04 44.09432 -0.86913 11994 ft 310 kts 216°
2026-05-05 23:04 44.07655 -0.88601 11635 ft 308 kts 216°
2026-05-05 23:04 44.05887 -0.90280 11287 ft 307 kts 216°
2026-05-05 23:05 44.04127 -0.91949 10929 ft 305 kts 216°
2026-05-05 23:05 44.02373 -0.93611 10581 ft 304 kts 216°
2026-05-05 23:05 44.00647 -0.95246 10449 ft 295 kts 216°
2026-05-05 23:05 43.98974 -0.96828 10303 ft 287 kts 216°
2026-05-05 23:06 43.97341 -0.98373 10174 ft 279 kts 216°
2026-05-05 23:06 43.95757 -0.99870 10051 ft 272 kts 216°
2026-05-05 23:06 43.94209 -1.01332 9808 ft 268 kts 216°
2026-05-05 23:06 43.92692 -1.02766 9543 ft 266 kts 216°
2026-05-05 23:07 43.91164 -1.04208 9261 ft 265 kts 216°
2026-05-05 23:07 43.89642 -1.05644 8984 ft 263 kts 216°
2026-05-05 23:07 43.88132 -1.07068 8704 ft 262 kts 216°
2026-05-05 23:07 43.86628 -1.08485 8436 ft 260 kts 216°
2026-05-05 23:08 43.85133 -1.09893 8163 ft 259 kts 216°
2026-05-05 23:08 43.83645 -1.11293 7885 ft 258 kts 216°
2026-05-05 23:08 43.82165 -1.12685 7618 ft 257 kts 216°
2026-05-05 23:08 43.80690 -1.14072 7351 ft 256 kts 216°
2026-05-05 23:09 43.79219 -1.15453 7078 ft 255 kts 215°
2026-05-05 23:09 43.77750 -1.16831 6810 ft 255 kts 215°
2026-05-05 23:09 43.76285 -1.18204 6536 ft 254 kts 215°
2026-05-05 23:09 43.74797 -1.19519 6255 ft 254 kts 206°
2026-05-05 23:10 43.73086 -1.20118 6009 ft 253 kts 189°
2026-05-05 23:10 43.71350 -1.20490 5769 ft 250 kts 190°
2026-05-05 23:10 43.69685 -1.20863 5715 ft 235 kts 191°
2026-05-05 23:10 43.68113 -1.21227 5600 ft 223 kts 191°
2026-05-05 23:11 43.66618 -1.21580 5338 ft 218 kts 191°
2026-05-05 23:11 43.65089 -1.21946 4896 ft 223 kts 191°
2026-05-05 23:11 43.63564 -1.22312 4577 ft 220 kts 191°
2026-05-05 23:11 43.62074 -1.22670 4326 ft 215 kts 191°
2026-05-05 23:12 43.60622 -1.23018 4100 ft 209 kts 191°
2026-05-05 23:12 43.59229 -1.23349 3906 ft 203 kts 191°
2026-05-05 23:12 43.57843 -1.23678 3702 ft 202 kts 191°
2026-05-05 23:12 43.56472 -1.24003 3619 ft 199 kts 192°
2026-05-05 23:13 43.55095 -1.24330 3536 ft 203 kts 192°
2026-05-05 23:13 43.53696 -1.24659 3494 ft 204 kts 191°
2026-05-05 23:13 43.52293 -1.24987 3499 ft 205 kts 191°
2026-05-05 23:13 43.50880 -1.25316 3497 ft 206 kts 191°
2026-05-05 23:14 43.49466 -1.25646 3497 ft 206 kts 191°
2026-05-05 23:14 43.48097 -1.26145 3475 ft 204 kts 213°
2026-05-05 23:14 43.47249 -1.27556 3467 ft 190 kts 257°
2026-05-05 23:14 43.47185 -1.29301 3364 ft 178 kts 270°
2026-05-05 23:15 43.47142 -1.30976 3128 ft 166 kts 269°
2026-05-05 23:15 43.47108 -1.32474 2941 ft 150 kts 269°
2026-05-05 23:15 43.47085 -1.33909 2732 ft 151 kts 269°
2026-05-05 23:15 43.47064 -1.35338 2518 ft 148 kts 269°
2026-05-05 23:16 43.47044 -1.36729 2314 ft 144 kts 269°
2026-05-05 23:16 43.47025 -1.38106 2119 ft 144 kts 269°
2026-05-05 23:16 43.47006 -1.39481 1925 ft 143 kts 269°
2026-05-05 23:16 43.46987 -1.40845 1735 ft 142 kts 269°
2026-05-05 23:17 43.46968 -1.42213 1539 ft 143 kts 269°
2026-05-05 23:17 43.46950 -1.43579 1352 ft 143 kts 269°
2026-05-05 23:17 43.46938 -1.44486 1207 ft 143 kts 269°
2026-05-05 23:17 43.46919 -1.45866 1007 ft 145 kts 269°
2026-05-05 23:18 43.46901 -1.47255 814 ft 145 kts 269°
2026-05-05 23:18 43.46883 -1.48640 607 ft 145 kts 270°
2026-05-05 23:18 43.46866 -1.50014 402 ft 143 kts 268°
2026-05-05 23:18 43.46846 -1.51322 254 ft 128 kts 269°
2026-05-05 23:19 43.46833 -1.52337 240 ft 63 kts 269°
2026-05-05 23:19 43.46832 -1.52572 241 ft 12 kts 269°
2026-05-05 23:19 43.46832 -1.52624 241 ft 15 kts 270°
2026-05-05 23:19 43.46833 -1.52816 244 ft 21 kts 268°
2026-05-05 23:20 43.46830 -1.53013 246 ft 20 kts 269°
2026-05-05 23:20 43.46887 -1.53154 243 ft 15 kts 332°
2026-05-05 23:20 43.46967 -1.53210 244 ft 0 kts 332°
2026-05-05 23:20 43.46968 -1.53210 244 ft 1 kts 332°
2026-05-05 23:21 43.47001 -1.53179 244 ft 9 kts 46°
2026-05-05 23:21 43.47053 -1.53144 244 ft 8 kts 20°
2026-05-05 23:21 43.47106 -1.53118 244 ft 8 kts 19°
2026-05-05 23:21 43.47124 -1.53109 244 ft 0 kts 19°